Location: Rounton
(54.4000°N, 1.3500°W)
Time: 13:35:08
(UTC+00:00)

deb Explorer IX - Visible Passes

Search period start: 09 December 2021 00:00
Search period end: 19 December 2021 00:00
Orbit: 545 x 1085 km, 38.8° (Epoch: 08 December)

Date Brightness Start Highest point End Pass type
(mag) Time Alt. Az. Time Alt. Az. Time Alt. Az.
13 Dec ? 06:26:06 10° S 06:27:08 10° SSE 06:28:08 10° SSE visible
14 Dec ? 06:00:26 10° S 06:02:00 11° SSE 06:03:31 10° SE visible
15 Dec ? 05:34:53 10° S 05:36:51 11° SSE 05:38:45 10° SE visible
15 Dec ? 07:18:45 10° SW 07:22:26 16° S 07:25:49 10° SE visible
16 Dec ? 05:09:24 10° S 05:11:41 12° SSE 05:13:53 10° SE visible
16 Dec ? 06:53:21 10° SW 06:57:16 17° S 07:00:53 10° SE visible
17 Dec ? 04:43:56 10° S 04:46:29 12° SSE 04:48:57 10° SE visible
17 Dec ? 06:27:57 10° SW 06:32:06 18° S 06:35:56 10° SE visible
18 Dec ? 04:19:50 12° S 04:21:16 13° SSE 04:23:56 10° SE visible
18 Dec ? 06:02:33 10° SW 06:06:54 18° S 06:10:56 10° SE visible
